| time (UTC) | temp F | wind direction | speed MPH | gust MPH | rain 1hr in | rain 24hr in | rain mn in | humidity % | barometer mb |
| 20260504030732 | 65 | 89 | 2.0 | 2.0 | 0.00 | 0.00 | 0.00 | 59 | 1018.0 |
| 20260504030230 | 65 | 89 | 2.0 | 2.0 | 0.00 | 0.00 | 0.00 | 59 | 1018.0 |
| 20260504025726 | 66 | 93 | 2.0 | 2.0 | 0.00 | 0.00 | 0.00 | 58 | 1017.9 |
| 20260504025223 | 66 | 92 | 2.0 | 2.0 | 0.00 | 0.00 | 0.00 | 59 | 1017.9 |
| 20260504024720 | 66 | 86 | 2.0 | 2.0 | 0.00 | 0.00 | 0.00 | 59 | 1018.0 |
| 20260504024217 | 66 | 79 | 2.0 | 2.0 | 0.00 | 0.00 | 0.00 | 60 | 1018.0 |
| 20260504023714 | 66 | 93 | 2.0 | 2.0 | 0.00 | 0.00 | 0.00 | 58 | 1017.8 |
| 20260504023209 | 67 | 87 | 1.0 | 2.0 | 0.00 | 0.00 | 0.00 | 57 | 1017.8 |
| 20260504022706 | 67 | 88 | 2.0 | 2.0 | 0.00 | 0.00 | 0.00 | 57 | 1017.9 |
| 20260504022202 | 67 | 86 | 2.0 | 2.0 | 0.00 | 0.00 | 0.00 | 56 | 1018.0 |
| 20260504021700 | 68 | 81 | 2.0 | 2.0 | 0.00 | 0.00 | 0.00 | 57 | 1017.9 |
| 20260504021156 | 68 | 92 | 2.0 | 2.0 | 0.00 | 0.00 | 0.00 | 56 | 1018.1 |
| 20260504020653 | 68 | 78 | 2.0 | 2.0 | 0.00 | 0.00 | 0.00 | 57 | 1017.8 |
| 20260504020149 | 68 | 83 | 2.0 | 2.0 | 0.00 | 0.00 | 0.00 | 56 | 1017.9 |
| 20260504015646 | 69 | 84 | 1.0 | 2.0 | 0.00 | 0.00 | 0.00 | 55 | 1017.6 |
| 20260504015143 | 69 | 95 | 1.0 | 2.0 | 0.00 | 0.00 | 0.00 | 54 | 1017.5 |
| 20260504014638 | 69 | 83 | 2.0 | 2.0 | 0.00 | 0.00 | 0.00 | 55 | 1017.3 |
| 20260504014136 | 69 | 86 | 2.0 | 2.0 | 0.00 | 0.00 | 0.00 | 53 | 1017.4 |
| 20260504013633 | 70 | 96 | 2.0 | 2.0 | 0.00 | 0.00 | 0.00 | 52 | 1017.3 |
| 20260504013130 | 70 | 79 | 2.0 | 2.0 | 0.00 | 0.00 | 0.00 | 51 | 1017.3 |
| 20260504012627 | 70 | 92 | 2.0 | 2.0 | 0.00 | 0.00 | 0.00 | 51 | 1017.3 |
| 20260504012125 | 71 | 86 | 2.0 | 2.0 | 0.00 | 0.00 | 0.00 | 51 | 1017.3 |
| 20260504011622 | 71 | 73 | 2.0 | 2.0 | 0.00 | 0.00 | 0.00 | 51 | 1017.4 |
| 20260504011118 | 71 | 89 | 0.0 | 2.0 | 0.00 | 0.00 | 0.00 | 51 | 1017.3 |
| 20260504010614 | 72 | 87 | 1.0 | 2.0 | 0.00 | 0.00 | 0.00 | 49 | 1017.4 |
| 20260504010110 | 72 | 85 | 2.0 | 2.0 | 0.00 | 0.00 | 0.00 | 48 | 1017.2 |
| 20260504005607 | 73 | 61 | 2.0 | 2.0 | 0.00 | 0.00 | 0.00 | 47 | 1017.4 |
| 20260504005104 | 73 | 93 | 1.0 | 2.0 | 0.00 | 0.00 | 0.00 | 48 | 1017.4 |
| 20260504004602 | 73 | 50 | 2.0 | 2.0 | 0.00 | 0.00 | 0.00 | 48 | 1017.4 |
| 20260504004059 | 73 | 61 | 2.0 | 2.0 | 0.00 | 0.00 | 0.00 | 45 | 1017.3 |
| 20260504003555 | 74 | 101 | 2.0 | 2.0 | 0.00 | 0.00 | 0.00 | 47 | 1017.2 |
| 20260504003052 | 74 | 73 | 2.0 | 2.0 | 0.00 | 0.00 | 0.00 | 47 | 1017.4 |
| 20260504002549 | 75 | 93 | 2.0 | 2.0 | 0.00 | 0.00 | 0.00 | 45 | 1017.4 |
| 20260504002046 | 76 | 111 | 1.0 | 2.0 | 0.00 | 0.00 | 0.00 | 42 | 1017.4 |
| 20260504001544 | 76 | 48 | 2.0 | 4.0 | 0.00 | 0.00 | 0.00 | 41 | 1017.7 |
| 20260504001040 | 76 | 122 | 2.0 | 3.0 | 0.00 | 0.00 | 0.00 | 47 | 1017.7 |
| 20260504000537 | 76 | 98 | 1.0 | 2.0 | 0.00 | 0.00 | 0.00 | 44 | 1017.9 |
| 20260504000035 | 76 | 58 | 0.0 | 2.0 | 0.00 | 0.00 | 0.00 | 42 | 1017.6 |
| 20260503235533 | 77 | 46 | 2.0 | 2.0 | 0.00 | 0.00 | 0.00 | 41 | 1017.9 |
| 20260503235029 | 77 | 127 | 0.0 | 3.0 | 0.00 | 0.00 | 0.00 | 39 | 1017.8 |
| 20260503234527 | 77 | 137 | 2.0 | 3.0 | 0.00 | 0.00 | 0.00 | 39 | 1017.8 |
| 20260503234025 | 78 | 76 | 2.0 | 3.0 | 0.00 | 0.00 | 0.00 | 40 | 1018.0 |
| 20260503233521 | 77 | 95 | 2.0 | 2.0 | 0.00 | 0.00 | 0.00 | 42 | 1017.8 |
| 20260503233017 | 77 | 63 | 1.0 | 2.0 | 0.00 | 0.00 | 0.00 | 42 | 1017.9 |
| 20260503232514 | 77 | 89 | 2.0 | 3.0 | 0.00 | 0.00 | 0.00 | 42 | 1017.9 |
| 20260503232012 | 78 | 37 | 0.0 | 3.0 | 0.00 | 0.00 | 0.00 | 38 | 1018.0 |
| 20260503231509 | 78 | 120 | 1.0 | 5.0 | 0.00 | 0.00 | 0.00 | 38 | 1018.1 |
| 20260503231006 | 78 | 61 | 0.0 | 3.0 | 0.00 | 0.00 | 0.00 | 39 | 1018.0 |
| 20260503230503 | 78 | 76 | 0.0 | 3.0 | 0.00 | 0.00 | 0.00 | 40 | 1017.7 |
| 20260503230000 | 78 | 85 | 2.0 | 2.0 | 0.00 | 0.00 | 0.00 | 42 | 1017.8 |
| 20260503225456 | 78 | 121 | 2.0 | 2.0 | 0.00 | 0.00 | 0.00 | 39 | 1017.9 |
| 20260503224952 | 79 | 82 | 0.0 | 3.0 | 0.00 | 0.00 | 0.00 | 37 | 1018.0 |
| 20260503224449 | 78 | 131 | 1.0 | 4.0 | 0.00 | 0.00 | 0.00 | 37 | 1018.0 |
| 20260503223947 | 79 | 107 | 1.0 | 3.0 | 0.00 | 0.00 | 0.00 | 37 | 1018.0 |
| 20260503223445 | 79 | 59 | 2.0 | 4.0 | 0.00 | 0.00 | 0.00 | 37 | 1018.2 |
| 20260503222940 | 79 | 127 | 2.0 | 3.0 | 0.00 | 0.00 | 0.00 | 36 | 1018.3 |
| 20260503222439 | 79 | 155 | 0.0 | 2.0 | 0.00 | 0.00 | 0.00 | 36 | 1018.4 |
| 20260503221937 | 79 | 135 | 0.0 | 3.0 | 0.00 | 0.00 | 0.00 | 37 | 1018.4 |
| 20260503221435 | 79 | 1 | 4.0 | 4.0 | 0.00 | 0.00 | 0.00 | 36 | 1018.5 |
| 20260503220931 | 79 | 173 | 2.0 | 5.0 | 0.00 | 0.00 | 0.00 | 36 | 1018.5 |
| 20260503220427 | 80 | 75 | 0.0 | 2.0 | 0.00 | 0.00 | 0.00 | 35 | 1018.8 |
| 20260503215925 | 80 | 66 | 1.0 | 2.0 | 0.00 | 0.00 | 0.00 | 36 | 1018.5 |
| 20260503215422 | 80 | 157 | 1.0 | 2.0 | 0.00 | 0.00 | 0.00 | 34 | 1018.9 |
| 20260503214919 | 80 | 123 | 2.0 | 3.0 | 0.00 | 0.00 | 0.00 | 35 | 1018.8 |
| 20260503214417 | 80 | 142 | 0.0 | 3.0 | 0.00 | 0.00 | 0.00 | 36 | 1018.8 |
| 20260503213914 | 80 | 101 | 1.0 | 5.0 | 0.00 | 0.00 | 0.00 | 34 | 1019.1 |
| 20260503213412 | 80 | 69 | 0.0 | 3.0 | 0.00 | 0.00 | 0.00 | 35 | 1019.3 |
| 20260503212908 | 80 | 43 | 3.0 | 3.0 | 0.00 | 0.00 | 0.00 | 34 | 1019.1 |
| 20260503212406 | 81 | 141 | 2.0 | 4.0 | 0.00 | 0.00 | 0.00 | 35 | 1019.1 |
| 20260503211903 | 81 | 129 | 1.0 | 3.0 | 0.00 | 0.00 | 0.00 | 33 | 1019.3 |
| 20260503211359 | 81 | 133 | 2.0 | 4.0 | 0.00 | 0.00 | 0.00 | 34 | 1019.5 |
| 20260503210855 | 82 | 69 | 2.0 | 3.0 | 0.00 | 0.00 | 0.00 | 34 | 1019.6 |
| 20260503210352 | 82 | 173 | 0.0 | 3.0 | 0.00 | 0.00 | 0.00 | 35 | 1019.7 |
| 20260503205847 | 84 | 347 | 3.0 | 4.0 | 0.00 | 0.00 | 0.00 | 32 | 1019.9 |
| 20260503205344 | 84 | 40 | 2.0 | 3.0 | 0.00 | 0.00 | 0.00 | 32 | 1020.1 |
| 20260503204840 | 84 | 268 | 0.0 | 4.0 | 0.00 | 0.00 | 0.00 | 32 | 1019.8 |
| 20260503204338 | 84 | 146 | 1.0 | 3.0 | 0.00 | 0.00 | 0.00 | 32 | 1019.8 |
| 20260503203835 | 85 | 166 | 0.0 | 4.0 | 0.00 | 0.00 | 0.00 | 32 | 1020.0 |
| 20260503203332 | 84 | 39 | 2.0 | 3.0 | 0.00 | 0.00 | 0.00 | 32 | 1020.1 |
| 20260503202829 | 84 | 178 | 2.0 | 3.0 | 0.00 | 0.00 | 0.00 | 31 | 1020.2 |
| 20260503202327 | 86 | 157 | 0.0 | 3.0 | 0.00 | 0.00 | 0.00 | 29 | 1020.4 |
| 20260503201826 | 87 | 95 | 0.0 | 2.0 | 0.00 | 0.00 | 0.00 | 30 | 1020.4 |
| 20260503201322 | 86 | 50 | 0.0 | 2.0 | 0.00 | 0.00 | 0.00 | 30 | 1020.6 |
| 20260503200820 | 86 | 209 | 0.0 | 3.0 | 0.00 | 0.00 | 0.00 | 32 | 1020.6 |
| 20260503200315 | 86 | 116 | 1.0 | 3.0 | 0.00 | 0.00 | 0.00 | 31 | 1020.6 |
| 20260503195813 | 84 | 20 | 0.0 | 5.0 | 0.00 | 0.00 | 0.00 | 33 | 1020.9 |
| 20260503195309 | 86 | 81 | 2.0 | 5.0 | 0.00 | 0.00 | 0.00 | 31 | 1020.8 |
| 20260503194807 | 84 | 117 | 0.0 | 4.0 | 0.00 | 0.00 | 0.00 | 35 | 1020.9 |
| 20260503194302 | 86 | 37 | 1.0 | 3.0 | 0.00 | 0.00 | 0.00 | 32 | 1020.7 |
| 20260503193759 | 85 | 164 | 0.0 | 4.0 | 0.00 | 0.00 | 0.00 | 32 | 1020.9 |
| 20260503193255 | 84 | 129 | 0.0 | 3.0 | 0.00 | 0.00 | 0.00 | 32 | 1020.9 |
| 20260503192751 | 85 | 180 | 2.0 | 4.0 | 0.00 | 0.00 | 0.00 | 31 | 1021.1 |
| 20260503192246 | 86 | 39 | 0.0 | 2.0 | 0.00 | 0.00 | 0.00 | 33 | 1021.0 |
| 20260503191743 | 84 | 115 | 2.0 | 2.0 | 0.00 | 0.00 | 0.00 | 34 | 1021.1 |
| 20260503191240 | 82 | 70 | 0.0 | 4.0 | 0.00 | 0.00 | 0.00 | 35 | 1021.3 |
| 20260503190737 | 84 | 171 | 2.0 | 3.0 | 0.00 | 0.00 | 0.00 | 33 | 1021.4 |
| 20260503190234 | 85 | 50 | 1.0 | 3.0 | 0.00 | 0.00 | 0.00 | 33 | 1021.4 |
| 20260503185731 | 84 | 13 | 2.0 | 3.0 | 0.00 | 0.00 | 0.00 | 32 | 1021.4 |
| 20260503185226 | 84 | 109 | 1.0 | 4.0 | 0.00 | 0.00 | 0.00 | 33 | 1021.6 |
| 20260503184721 | 84 | 62 | 2.0 | 2.0 | 0.00 | 0.00 | 0.00 | 35 | 1021.7 |
| 20260503184218 | 84 | 167 | 0.0 | 2.0 | 0.00 | 0.00 | 0.00 | 34 | 1021.7 |
| 20260503183714 | 83 | 130 | 2.0 | 2.0 | 0.00 | 0.00 | 0.00 | 34 | 1021.7 |
| 20260503183211 | 83 | 82 | 2.0 | 2.0 | 0.00 | 0.00 | 0.00 | 35 | 1021.8 |
| 20260503182709 | 84 | 103 | 2.0 | 4.0 | 0.00 | 0.00 | 0.00 | 34 | 1022.1 |
| 20260503182208 | 83 | 14 | 0.0 | 4.0 | 0.00 | 0.00 | 0.00 | 35 | 1022.2 |
| 20260503181704 | 82 | 143 | 0.0 | 3.0 | 0.00 | 0.00 | 0.00 | 37 | 1022.3 |
| 20260503181201 | 82 | 124 | 1.0 | 2.0 | 0.00 | 0.00 | 0.00 | 37 | 1022.1 |
| 20260503180657 | 81 | 115 | 0.0 | 4.0 | 0.00 | 0.00 | 0.00 | 35 | 1022.4 |
| 20260503180156 | 82 | 25 | 2.0 | 3.0 | 0.00 | 0.00 | 0.00 | 37 | 1022.7 |
| 20260503175652 | 83 | 174 | 1.0 | 2.0 | 0.00 | 0.00 | 0.00 | 35 | 1022.6 |
| 20260503175150 | 83 | 96 | 1.0 | 2.0 | 0.00 | 0.00 | 0.00 | 36 | 1022.7 |
| 20260503174646 | 83 | 116 | 0.0 | 2.0 | 0.00 | 0.00 | 0.00 | 34 | 1022.6 |
| 20260503174143 | 82 | 120 | 1.0 | 2.0 | 0.00 | 0.00 | 0.00 | 37 | 1022.7 |
| 20260503173638 | 81 | 146 | 1.0 | 2.0 | 0.00 | 0.00 | 0.00 | 38 | 1022.9 |
| 20260503173135 | 81 | 108 | 2.0 | 3.0 | 0.00 | 0.00 | 0.00 | 38 | 1022.8 |
| 20260503172632 | 80 | 92 | 2.0 | 2.0 | 0.00 | 0.00 | 0.00 | 37 | 1022.9 |
| 20260503172130 | 81 | 126 | 1.0 | 2.0 | 0.00 | 0.00 | 0.00 | 39 | 1022.8 |
| 20260503171626 | 80 | 79 | 2.0 | 2.0 | 0.00 | 0.00 | 0.00 | 39 | 1023.1 |
| 20260503171123 | 78 | 67 | 0.0 | 4.0 | 0.00 | 0.00 | 0.00 | 38 | 1023.0 |
| 20260503170620 | 79 | 160 | 2.0 | 2.0 | 0.00 | 0.00 | 0.00 | 38 | 1023.1 |
| 20260503170117 | 78 | 127 | 2.0 | 4.0 | 0.00 | 0.00 | 0.00 | 41 | 1023.3 |
| 20260503151012 | 66 | 63 | 3.0 | 3.0 | 0.00 | 0.00 | 0.00 | 66 | 1023.8 |
| 20260503150508 | 66 | 84 | 2.0 | 2.0 | 0.00 | 0.00 | 0.00 | 68 | 1023.8 |
| 20260503131402 | 53 | 102 | 2.0 | 2.0 | 0.00 | 0.00 | 0.00 | 96 | 1023.4 |
| 20260503130859 | 52 | 101 | 2.0 | 3.0 | 0.00 | 0.00 | 0.00 | 95 | 1023.1 |
| 20260503130356 | 51 | 102 | 2.0 | 4.0 | 0.00 | 0.00 | 0.00 | 95 | 1023.0 |
| 20260503110755 | 50 | 99 | 2.0 | 3.0 | 0.00 | 0.00 | 0.00 | 94 | 1022.4 |
| 20260503110252 | 50 | 88 | 2.0 | 4.0 | 0.00 | 0.00 | 0.00 | 93 | 1022.2 |
| 20260503100218 | 51 | 97 | 2.0 | 2.0 | 0.00 | 0.00 | 0.00 | 93 | 1021.5 |
| 20260503090148 | 52 | 89 | 2.0 | 2.0 | 0.00 | 0.00 | 0.00 | 93 | 1021.7 |
| 20260503081624 | 52 | 98 | 2.0 | 2.0 | 0.00 | 0.00 | 0.00 | 93 | 1021.9 |
| 20260503081121 | 52 | 89 | 2.0 | 2.0 | 0.00 | 0.00 | 0.00 | 92 | 1021.9 |
| 20260503080617 | 52 | 89 | 2.0 | 3.0 | 0.00 | 0.00 | 0.00 | 92 | 1021.8 |
| 20260503080114 | 52 | 75 | 2.0 | 2.0 | 0.00 | 0.00 | 0.00 | 92 | 1021.8 |
| 20260503072551 | 53 | 92 | 2.0 | 2.0 | 0.00 | 0.00 | 0.00 | 92 | 1022.0 |
| 20260503072048 | 53 | 82 | 2.0 | 2.0 | 0.00 | 0.00 | 0.00 | 92 | 1022.2 |
| 20260503071544 | 53 | 76 | 2.0 | 3.0 | 0.00 | 0.00 | 0.00 | 92 | 1022.0 |
| 20260503071041 | 53 | 93 | 2.0 | 3.0 | 0.00 | 0.00 | 0.00 | 92 | 1022.1 |
| 20260503070537 | 53 | 80 | 2.0 | 2.0 | 0.00 | 0.00 | 0.00 | 92 | 1022.2 |
| 20260503054951 | 55 | 73 | 2.0 | 2.0 | 0.00 | 0.00 | 0.00 | 90 | 1022.4 |
| 20260503054447 | 55 | 74 | 2.0 | 3.0 | 0.00 | 0.00 | 0.00 | 91 | 1022.4 |
| 20260503053945 | 55 | 92 | 2.0 | 2.0 | 0.00 | 0.00 | 0.00 | 90 | 1022.5 |
| 20260503053442 | 55 | 70 | 2.0 | 2.0 | 0.00 | 0.00 | 0.00 | 90 | 1022.4 |
| 20260503052939 | 55 | 82 | 2.0 | 2.0 | 0.00 | 0.00 | 0.00 | 90 | 1022.2 |
| 20260503052437 | 56 | 77 | 2.0 | 2.0 | 0.00 | 0.00 | 0.00 | 90 | 1022.5 |
| 20260503051932 | 56 | 66 | 2.0 | 2.0 | 0.00 | 0.00 | 0.00 | 89 | 1022.5 |
| 20260503051429 | 56 | 76 | 2.0 | 2.0 | 0.00 | 0.00 | 0.00 | 89 | 1022.5 |
| 20260503050926 | 56 | 74 | 2.0 | 2.0 | 0.00 | 0.00 | 0.00 | 89 | 1022.4 |
| 20260503050422 | 56 | 72 | 2.0 | 2.0 | 0.00 | 0.00 | 0.00 | 89 | 1022.4 |
| 20260503045920 | 56 | 80 | 2.0 | 2.0 | 0.00 | 0.00 | 0.00 | 88 | 1022.5 |
| 20260503045417 | 56 | 83 | 1.0 | 3.0 | 0.00 | 0.00 | 0.00 | 88 | 1022.3 |
| 20260503044914 | 56 | 82 | 2.0 | 3.0 | 0.00 | 0.00 | 0.00 | 87 | 1022.3 |
| 20260503044411 | 57 | 83 | 2.0 | 3.0 | 0.00 | 0.00 | 0.00 | 87 | 1022.4 |
| 20260503043908 | 57 | 91 | 2.0 | 2.0 | 0.00 | 0.00 | 0.00 | 87 | 1022.4 |
| 20260503043404 | 57 | 80 | 2.0 | 3.0 | 0.00 | 0.00 | 0.00 | 87 | 1022.3 |
| 20260503042901 | 57 | 81 | 2.0 | 2.0 | 0.00 | 0.00 | 0.00 | 86 | 1022.4 |
| 20260503042357 | 57 | 78 | 2.0 | 2.0 | 0.00 | 0.00 | 0.00 | 85 | 1022.4 |
| 20260503041853 | 58 | 81 | 2.0 | 3.0 | 0.00 | 0.00 | 0.00 | 86 | 1022.3 |
| 20260503041351 | 57 | 81 | 2.0 | 2.0 | 0.00 | 0.00 | 0.00 | 85 | 1022.2 |
| 20260503040848 | 57 | 85 | 2.0 | 2.0 | 0.00 | 0.00 | 0.00 | 85 | 1022.1 |
| 20260503040346 | 57 | 73 | 2.0 | 2.0 | 0.00 | 0.00 | 0.00 | 84 | 1022.2 |
| 20260503035842 | 58 | 82 | 2.0 | 2.0 | 0.00 | 0.00 | 0.00 | 83 | 1022.1 |
| 20260503035339 | 58 | 74 | 2.0 | 2.0 | 0.00 | 0.00 | 0.00 | 84 | 1022.1 |
| 20260503034837 | 58 | 82 | 2.0 | 2.0 | 0.00 | 0.00 | 0.00 | 83 | 1022.3 |
| 20260503034334 | 59 | 75 | 2.0 | 2.0 | 0.00 | 0.00 | 0.00 | 83 | 1022.0 |
| 20260503033831 | 59 | 78 | 2.0 | 2.0 | 0.00 | 0.00 | 0.00 | 82 | 1021.9 |
| 20260503033329 | 59 | 62 | 2.0 | 2.0 | 0.00 | 0.00 | 0.00 | 81 | 1021.9 |
| 20260503032827 | 59 | 78 | 2.0 | 3.0 | 0.00 | 0.00 | 0.00 | 81 | 1021.9 |
| 20260503032325 | 59 | 80 | 2.0 | 2.0 | 0.00 | 0.00 | 0.00 | 80 | 1021.8 |
| 20260503031822 | 59 | 82 | 2.0 | 2.0 | 0.00 | 0.00 | 0.00 | 78 | 1022.0 |
| 20260503031320 | 60 | 79 | 2.0 | 2.0 | 0.00 | 0.00 | 0.00 | 77 | 1021.8 |